User: anonymous   Login
Location: Gairloch Mountain Observatory
(46.1383°N, 60.9640°W)
Time: 23:20:26
(UTC-03:00)
Language:

CENTAUR R/B - Orbit

View from above orbital plane
View from above orbital plane
View from above satellite
View from above satellite

Ground track
Ground track

The orbit data is extracted from the following two-line orbital elements,

1 26906U 01040B   15064.77713592 0.00000070  00000-0  95819-4 0    01
2 26906  63.4635 310.9853 0278000 344.4266  15.5734 13.43946648    00
Epoch (UTC): 05 March 2015 18:39:04
Eccentricity: 0.0278000
inclination: 63.4635°
perigee height: 887 km
apogee height: 1302 km
right ascension of ascending node: 310.9853°
argument of perigee: 344.4266°
revolutions per day: 13.43946648
mean anomaly at epoch: 15.5734°
orbit number at epoch: 0

The dashed part of the orbit path shows where the satellite is in the earth's shadow,  

DLR